EHI
0 0 0 0 0 0 0 0 0 0 0 0 0 0 0 0 0 0 0 6 35 65 66 68 78 58 21 2 0 0 0 0 0 0 0 0 0 0 0 0 0 0 0 0 0 0 0 0 0
0 0 0 0 0 0 0 0 0 0 0 0 0 0 0 0 0 0 0 7 38 63 59 59 78 67 31 7 2 1 0 0 0 0 0 0 0 0 0 0 0 0 0 0 0 0 0 0 0
0 0 0 0 0 0 0 0 0 0 0 0 0 0 0 0 0 0 0 8 33 50 43 52 79 77 45 17 6 3 1 0 0 0 0 0 0 0 0 0 0 0 0 0 0 0 0 0 0
0 0 0 0 0 0 0 0 0 0 0 0 0 0 0 0 0 0 1 7 23 30 30 51 81 83 59 31 13 5 1 0 0 0 0 0 0 0 0 0 0 0 0 0 0 0 0 0 0
0 0 0 0 0 0 0 0 1 1 1 0 0 0 0 2 3 3 1 5 17 25 28 49 80 87 70 44 22 8 2 1 0 0 0 0 0 0 0 0 0 0 0 0 0 0 0 0 0
0 0 0 0 0 0 0 0 1 1 1 0 0 0 0 3 6 3 0 3 14 27 31 43 69 82 77 58 35 17 8 5 4 1 0 0 0 0 0 0 0 0 0 0 0 0 0 0 0
0 0 0 0 0 0 0 0 0 0 0 0 0 0 0 2 3 2 2 5 15 28 36 40 49 63 70 65 51 38 29 21 12 5 1 0 0 0 0 0 0 0 0 0 0 0 0 0 0
0 0 0 0 0 0 0 0 0 0 0 0 0 0 0 1 4 9 18 27 34 39 43 41 35 37 46 49 51 53 49 38 22 8 1 0 0 0 0 0 0 0 0 0 0 0 0 0 0
0 0 0 0 0 0 0 0 0 0 0 0 0 0 0 6 19 33 50 64 68 59 46 35 26 20 19 22 30 41 44 36 22 8 1 0 0 0 0 0 0 0 0 0 0 0 0 0 0
0 0 0 0 0 0 0 0 0 0 0 0 1 1 3 13 35 57 76 88 89 71 40 20 14 11 8 9 15 22 24 19 12 6 2 0 0 0 0 0 0 0 0 0 0 0 0 0 1
0 0 0 0 0 0 0 0 0 0 0 1 3 7 11 20 41 68 85 93 93 73 36 11 6 6 6 6 10 14 12 7 4 3 2 1 0 0 0 0 0 0 0 0 0 0 0 1 2
0 0 0 0 0 0 0 0 0 0 0 3 10 18 22 25 38 60 76 83 86 71 37 11 4 4 4 3 6 9 8 4 2 1 2 2 1 0 0 0 0 1 0 0 0 0 0 1 2
0 0 0 0 0 0 0 0 0 0 5 15 28 33 31 29 37 51 60 65 68 60 37 15 4 2 2 3 8 14 13 6 2 0 2 3 2 0 0 0 0 0 0 0 0 0 0 0 1
0 0 0 0 0 0 0 0 0 3 18 40 51 45 34 32 41 49 50 46 43 40 32 19 7 3 4 10 21 31 29 18 8 2 2 4 3 0 0 0 0 0 0 0 0 0 0 0 0
0 0 0 0 0 0 0 0 0 10 37 63 65 46 29 29 39 43 39 30 24 24 24 18 11 10 14 21 33 41 39 29 14 3 1 3 2 0 0 0 0 0 0 0 0 0 0 0 0
0 0 0 0 0 0 0 0 2 19 52 71 62 39 21 18 23 26 23 17 15 17 18 16 13 15 19 22 26 29 28 21 10 2 0 1 1 0 0 0 0 0 0 0 0 0 0 0 0
0 0 0 0 0 0 0 0 4 23 50 61 47 27 12 8 9 11 11 9 10 13 15 14 13 12 12 12 12 11 9 6 3 1 1 1 1 1 0 0 0 0 0 0 0 0 0 0 0
0 0 0 0 0 0 0 0 4 16 31 35 25 13 5 2 2 3 4 4 5 9 12 12 9 5 3 4 3 1 1 0 0 0 1 2 1 1 0 0 0 0 0 0 0 0 0 0 0
0 0 0 0 0 0 0 1 2 7 11 12 8 4 1 0 0 0 0 1 2 5 7 7 4 1 0 1 1 0 0 0 0 0 1 1 1 0 0 0 0 0 0 0 0 0 0 0 0
0 0 0 0 0 0 0 1 2 3 3 3 1 1 0 0 0 0 0 0 0 1 2 2 2 0 0 0 0 0 0 0 0 0 0 0 0 0 0 0 0 0 0 0 0 0 0 0 0
0 0 0 0 0 0 0 1 1 1 1 1 0 0 0 0 0 0 0 0 0 0 0 0 0 0 0 0 0 0 0 0 0 0 0 0 0 0 0 0 0 0 0 0 0 0 0 0 0
0 0 0 0 0 0 0 0 0 0 0 0 0 0 0 0 0 0 0 0 0 0 0 0 0 0 0 0 0 0 0 0 0 0 0 0 0 0 0 0 0 0 0 0 0 0 0 0 0
0 0 0 0 0 0 0 0 0 0 0 0 0 0 0 0 0 0 0 0 0 0 0 0 0 0 0 0 0 0 0 0 0 0 0 0 0 0 0 0 0 0 0 0 0 0 0 0 0
0 0 0 0 0 0 0 0 0 0 0 0 0 0 0 0 0 0 0 0 0 0 0 0 0 0 0 0 0 0 0 0 0 0 0 0 0 0 0 0 0 0 0 0 0 0 0 0 0
0 0 0 0 0 0 0 0 0 0 0 0 0 0 0 0 0 0 0 0 0 0 0 0 0 0 0 0 0 0 0 0 0 0 0 0 0 0 0 0 0 0 0 0 0 0 0 0 0
0 0 0 0 0 0 0 0 0 0 0 0 0 0 0 0 0 0 0 0 0 0 0 0 0 0 0 0 0 0 0 0 0 0 0 0 0 0 0 0 0 0 0 0 0 0 0 0 0
0 0 0 0 0 0 0 0 0 0 0 0 0 0 0 0 0 0 0 0 0 0 0 0 0 0 0 0 0 0 0 0 0 0 0 0 0 0 0 0 0 0 0 0 0 0 0 0 0
0 0 0 0 0 0 0 0 0 0 0 0 0 0 0 0 0 0 0 0 0 0 0 0 0 0 0 0 0 0 0 0 0 0 0 0 0 0 0 0 0 0 0 0 0 0 0 0 0
0 0 0 0 0 0 0 0 0 0 0 0 0 0 0 0 0 0 0 0 0 0 0 0 0 0 0 0 0 0 0 0 0 0 0 0 0 0 0 0 0 0 0 0 0 0 0 0 0
0 0 0 0 0 0 0 0 0 0 0 0 0 0 0 0 0 0 0 0 0 0 0 0 0 0 0 0 0 0 0 0 0 0 0 0 0 0 0 0 0 0 0 0 0 0 0 0 0
Wind_Speed
8 6 3 1 1 2 4 5 6 11 9 6 11 12 8 4 3 4 4 17 19 18 14 17 20 21 21 20 18 18 17 16 14 13 13 13 12 12 12 11 11 12 12 11 9 10 10 10 10
5 6 2 0 1 2 4 3 7 11 7 2 9 8 6 5 7 9 7 16 20 18 13 14 21 21 22 21 20 19 18 17 16 15 14 14 13 12 12 11 11 11 11 11 10 9 9 9 8
3 4 3 1 1 4 5 1 4 10 10 5 5 5 4 4 9 8 10 18 15 13 10 15 23 22 22 21 21 20 19 18 18 17 16 15 14 13 13 12 12 12 12 11 11 11 10 10 9
3 2 2 2 5 7 4 2 1 8 8 6 4 4 2 2 7 12 19 19 17 13 11 15 22 22 21 21 20 20 19 19 18 17 16 16 15 14 14 13 13 12 12 12 11 10 10 10 10
3 3 1 2 6 3 1 2 3 6 6 4 4 4 1 2 16 22 21 20 18 14 11 14 20 20 20 20 20 19 19 19 18 17 16 15 15 14 13 13 12 11 11 10 10 10 10 10 10
2 3 1 3 2 1 2 5 8 6 2 5 6 7 4 9 20 21 20 18 17 16 13 12 20 21 21 21 21 20 20 19 19 18 17 16 15 14 13 13 12 11 11 11 11 12 12 13 13
4 2 4 3 3 5 7 4 6 8 10 11 4 6 4 8 15 19 17 16 15 15 13 11 13 17 22 22 21 20 20 19 18 17 17 16 16 15 14 13 14 14 13 13 13 12 11 12 13
5 2 2 3 5 6 7 5 3 8 8 5 2 7 9 13 15 16 15 15 15 15 14 12 10 10 10 12 18 18 17 16 16 16 16 16 15 14 15 13 14 15 15 15 15 15 14 13 13
2 2 3 4 5 4 6 6 7 6 5 5 4 6 8 18 18 17 14 13 14 15 14 12 10 8 8 7 11 14 15 15 15 14 17 14 7 6 8 12 15 16 17 17 17 17 16 14 14
4 3 8 8 7 7 8 12 12 9 8 6 5 3 9 17 19 20 18 18 18 18 16 13 12 10 8 8 6 5 6 6 7 6 7 5 4 5 8 10 17 18 18 17 17 17 15 12 6
3 6 8 10 12 8 5 9 12 12 9 12 12 11 18 16 16 18 18 18 17 15 14 13 12 10 9 6 5 4 3 3 4 5 6 4 4 4 6 4 7 11 13 8 9 10 7 7 6
4 9 8 8 8 5 5 5 6 11 15 16 14 16 21 20 21 19 17 14 11 10 10 10 10 10 10 7 5 4 3 3 4 6 7 5 4 5 5 4 4 4 4 5 4 3 5 8 9
4 6 9 8 8 5 5 7 7 6 10 11 13 13 16 13 7 4 7 9 9 5 1 2 5 7 7 5 3 4 4 5 6 6 7 8 6 5 4 3 3 4 3 3 3 4 3 3 2
7 9 12 11 10 6 6 9 7 7 5 12 13 8 8 12 16 19 19 20 20 17 14 11 7 5 2 3 4 5 5 4 4 5 7 8 5 4 4 3 3 2 3 3 3 4 3 3 3
5 8 12 10 9 7 6 10 9 6 9 10 11 15 19 19 19 18 15 15 17 13 13 13 12 8 1 1 4 4 4 3 3 4 4 5 5 4 4 3 2 2 3 3 3 3 2 2 2
5 5 7 13 6 9 1 7 8 6 14 14 16 16 18 15 13 9 9 10 14 11 4 8 12 9 5 3 4 3 3 3 3 3 3 4 5 4 3 2 1 2 2 2 2 2 1 1 2
4 4 9 13 6 4 5 3 11 10 22 19 15 14 13 12 10 6 5 9 12 14 11 4 2 4 6 8 7 4 2 3 3 3 3 4 5 4 3 3 2 2 1 1 1 1 1 2 2
6 6 5 6 6 10 12 13 16 15 19 16 11 9 9 8 4 2 2 5 8 11 11 10 7 5 10 9 5 3 2 2 3 3 4 6 4 5 4 3 2 1 1 1 1 0 1 2 2
5 5 6 5 5 10 18 20 17 14 15 13 9 8 8 7 2 2 3 6 7 7 7 8 10 11 11 6 4 3 3 3 2 3 5 6 6 6 5 3 2 3 3 2 1 1 1 1 1
6 5 5 5 8 7 18 17 13 13 11 9 10 11 11 9 7 6 7 7 8 7 5 3 3 5 5 4 4 3 3 2 2 2 4 6 6 6 5 5 4 3 2 1 0 1 1 0 1
4 2 2 3 6 8 8 9 12 10 11 10 9 7 7 11 13 13 13 11 11 10 8 6 6 4 4 4 2 1 1 0 0 2 3 5 5 5 5 6 5 4 3 2 1 0 1 1 0
7 5 2 2 4 3 5 4 5 6 10 12 10 8 8 9 11 11 11 11 11 9 7 7 6 6 6 5 4 3 1 2 4 3 4 4 6 6 6 6 6 5 3 3 2 2 2 2 1
8 6 3 3 1 2 3 7 2 2 5 7 8 10 10 9 7 6 7 7 6 5 5 4 5 5 5 5 5 4 3 2 3 2 3 3 4 5 5 7 6 5 4 4 3 2 2 2 2
4 5 8 7 5 2 1 5 3 2 2 1 3 5 5 5 4 3 4 5 4 3 3 3 4 3 4 5 6 6 6 6 6 5 4 3 2 2 3 5 6 6 5 5 4 4 3 3 3
8 8 6 7 6 4 2 5 3 2 5 5 4 2 2 1 0 1 2 1 1 0 1 1 3 3 4 5 5 6 6 6 6 5 4 4 3 3 4 3 4 5 5 5 5 4 4 4 4
2 8 6 2 4 3 3 1 2 3 6 6 5 3 2 1 1 2 3 3 4 4 4 3 2 1 1 2 2 2 2 1 2 3 3 3 3 3 5 5 3 3 5 5 5 4 5 4 5
2 1 4 6 0 1 1 3 1 3 5 5 3 2 0 2 3 3 4 4 5 5 6 6 5 4 3 3 3 3 3 3 3 3 2 2 3 4 6 7 6 4 4 6 5 5 5 5 5
2 1 6 4 2 2 1 2 5 8 7 3 2 2 2 2 3 5 6 6 5 4 4 4 4 5 6 6 6 5 5 5 5 5 5 4 4 4 5 5 7 7 6 6 6 5 6 6 6
5 4 5 3 3 3 2 4 2 5 4 3 3 4 5 6 7 8 8 7 6 5 4 4 5 7 7 8 8 7 7 6 6 5 6 6 5 5 5 5 5 6 7 7 6 7 7 7 7
1 1 3 3 3 2 1 4 3 2 2 2 4 5 6 7 8 8 8 7 7 7 7 7 7 8 9 9 8 8 8 7 7 8 8 7 6 6 5 5 5 5 5 6 6 7 7 7 8
Wind_Direction
156 154 169 179 55 48 311 288 315 342 4 32 73 83 84 67 152 173 145 152 147 151 161 160 159 160 160 159 154 150 149 148 149 149 147 143 141 139 137 134 133 137 138 134 131 130 133 133 135
162 163 145 37 98 58 287 279 339 353 355 85 72 68 70 68 85 113 123 151 150 149 156 159 159 161 163 162 159 157 156 156 157 158 157 154 152 149 148 147 145 144 145 148 149 149 147 148 148
172 172 155 96 116 190 238 303 354 351 345 7 54 48 74 114 122 138 145 148 145 147 155 162 160 164 166 166 164 163 162 163 165 165 164 163 162 160 158 159 160 159 159 160 162 163 163 165 165
158 105 57 74 238 235 218 253 60 13 356 20 71 53 25 158 138 141 143 150 150 153 160 165 164 166 169 169 168 169 169 170 171 171 170 170 171 173 171 171 172 173 171 170 172 174 175 177 179
95 101 86 267 258 231 184 276 84 64 10 8 93 116 324 27 127 138 149 155 155 157 165 167 165 167 169 171 174 176 175 175 176 176 177 178 181 183 181 181 183 185 184 183 185 189 190 192 195
120 101 144 251 267 146 194 187 135 117 149 234 172 154 178 136 138 148 154 158 156 160 167 170 169 169 172 176 180 182 183 182 181 181 183 185 186 189 190 191 192 196 199 200 202 206 208 205 205
160 155 223 242 246 215 209 201 149 159 196 230 202 136 151 158 149 153 156 156 155 161 169 175 176 176 177 180 184 186 187 187 186 187 189 192 193 195 198 199 200 203 208 212 214 216 216 210 210
156 124 275 300 288 249 179 156 198 173 205 248 235 166 176 183 155 155 154 153 158 165 173 179 181 180 179 182 188 189 190 190 190 194 196 199 201 202 205 206 212 212 214 218 221 222 222 219 218
130 75 253 256 274 296 161 181 189 196 199 226 240 215 200 166 154 156 155 157 167 172 176 177 178 179 178 182 194 193 195 196 196 200 204 204 207 209 213 217 219 224 224 224 225 225 225 224 227
121 187 240 233 246 275 198 197 177 175 198 226 254 248 156 166 164 168 170 172 177 178 178 177 180 182 180 189 188 189 195 198 200 203 209 203 192 207 219 225 228 231 233 234 235 234 231 229 226
196 223 260 267 259 260 247 209 182 167 194 213 203 185 168 178 176 179 179 179 182 177 175 178 178 179 183 193 183 187 193 196 205 209 211 199 193 211 225 224 240 238 238 236 239 236 227 223 214
274 273 273 275 283 291 273 269 167 182 214 207 188 178 177 185 187 185 182 177 168 170 180 178 178 181 190 195 179 177 182 191 203 211 208 199 207 216 218 219 233 232 224 221 223 217 226 230 228
293 293 307 297 306 304 311 292 289 252 230 174 167 177 191 191 175 110 69 57 48 32 15 202 198 195 195 195 170 169 187 198 207 210 209 205 209 218 219 223 223 220 206 198 203 202 220 245 237
285 301 301 298 306 304 315 311 325 295 167 151 158 142 75 55 59 59 61 63 50 24 11 357 321 269 221 179 171 180 191 199 207 217 214 203 195 203 219 226 211 195 177 177 179 185 196 211 202
293 322 316 297 298 293 349 333 324 308 145 135 106 78 69 65 68 69 75 78 71 38 4 352 326 305 306 183 186 182 190 186 199 213 203 185 178 191 199 201 200 190 180 179 177 188 188 202 208
337 343 302 283 277 273 225 278 352 27 108 96 88 79 71 65 67 73 88 95 94 87 6 332 324 324 334 312 273 226 195 194 204 203 193 190 186 178 171 178 216 210 185 185 189 192 197 218 213
343 289 280 295 301 281 138 93 54 53 92 89 85 82 80 71 58 52 83 114 125 139 165 167 277 334 312 286 276 270 239 222 223 202 185 188 191 186 176 194 217 222 208 218 241 230 204 243 251
278 291 305 317 330 55 78 75 63 50 74 76 71 75 87 83 57 15 68 120 137 150 154 150 149 196 237 247 257 261 234 224 208 189 185 181 192 194 189 200 198 165 135 81 72 207 207 229 253
290 321 324 316 344 63 70 63 55 53 59 57 44 41 62 79 73 35 56 98 112 117 125 145 169 197 217 224 220 204 210 217 200 192 186 181 186 184 185 190 169 136 134 149 143 133 121 236 212
355 3 356 346 347 59 80 67 56 49 49 48 40 34 42 56 60 57 56 62 71 74 79 102 176 215 239 245 230 202 196 211 214 202 198 196 188 182 178 176 173 163 153 146 94 113 120 191 122
342 311 344 360 5 25 89 49 30 35 39 48 51 49 47 51 46 41 42 43 47 46 46 50 44 36 4 333 318 346 52 57 195 215 215 214 198 185 175 177 172 176 168 175 188 186 159 191 321
304 269 303 360 48 359 76 83 7 8 21 19 21 24 29 39 47 47 46 46 48 49 49 46 40 26 10 10 23 22 327 251 236 229 223 216 201 191 184 181 179 179 170 175 198 212 194 176 230
269 263 318 334 50 62 72 109 237 312 23 4 6 19 18 24 45 59 62 61 51 45 47 45 44 28 10 14 21 34 18 320 310 312 278 247 227 210 198 191 184 179 174 181 186 191 204 192 200
322 30 26 37 55 15 239 123 225 234 180 180 15 22 15 18 37 57 73 76 57 28 23 26 35 27 14 23 24 32 27 15 14 11 359 341 317 296 261 221 196 183 176 181 192 196 201 216 228
46 64 26 3 3 291 50 97 223 173 169 173 185 220 241 235 14 8 14 58 127 162 336 10 31 16 15 30 28 24 19 16 12 0 5 8 358 345 328 276 212 187 183 183 184 194 214 220 226
38 117 133 211 246 294 37 126 217 151 168 174 179 194 218 254 285 277 268 261 250 236 228 225 218 243 18 35 17 6 7 2 334 331 331 335 332 323 333 342 300 219 191 191 192 200 214 217 227
9 10 162 151 138 60 124 98 107 212 187 177 162 145 73 344 340 324 307 288 276 268 253 241 234 238 234 219 225 249 263 258 255 256 259 278 297 309 330 332 322 290 243 221 205 207 216 217 224
62 100 60 60 62 336 286 222 211 208 215 188 164 194 243 280 290 291 288 280 276 272 263 256 250 253 256 248 239 237 242 247 254 265 272 266 269 277 293 301 305 300 280 249 224 216 220 220 225
347 15 78 85 130 133 295 288 255 193 185 182 221 228 232 242 252 259 262 264 263 264 255 250 246 244 249 249 248 251 253 254 259 264 270 273 275 275 277 278 281 291 293 281 252 232 221 222 228
292 314 124 118 333 71 137 282 322 145 178 249 284 281 272 272 273 277 282 284 280 277 275 267 257 249 247 248 250 252 257 262 267 267 266 264 267 269 267 270 277 283 292 302 291 268 247 229 228